This is the latest recevied weather packets stored in our database for station/object F5OWB. If no packets are shown the sender has not sent any weather packets the latest 10 day(s).
| Time | Temp. | Humidity | Pressure | Rain* | Wind** | Luminosity | Snow |
|---|---|---|---|---|---|---|---|
| 1778256820 | 19.44° C | 48% | 1017.1 hPa | 0 mm | - | 483 W/m² | - |
| 1778256757 | 19.44° C | 46% | 1017.2 hPa | 0 mm | - | 485 W/m² | - |
| 1778256697 | 19.44° C | 46% | 1017.2 hPa | 0 mm | - | 492 W/m² | - |
| 1778256637 | 19.44° C | 47% | 1017.2 hPa | 0 mm | - | 501 W/m² | - |
| 1778256579 | 19.44° C | 47% | 1017.2 hPa | 0 mm | - | 499 W/m² | - |
| 1778256517 | 19.44° C | 46% | 1017.3 hPa | 0 mm | - | 475 W/m² | - |
| 1778256460 | 19.44° C | 49% | 1017.2 hPa | 0 mm | - | 452 W/m² | - |
| 1778256397 | 19.44° C | 48% | 1017.2 hPa | 0 mm | - | 427 W/m² | - |
| 1778256340 | 19.44° C | 48% | 1017.2 hPa | 0 mm | - | 360 W/m² | - |
| 1778256277 | 19.44° C | 50% | 1017.1 hPa | 0 mm | - | 336 W/m² | - |
| 1778256217 | 19.44° C | 49% | 1017.1 hPa | 0 mm | - | 308 W/m² | - |
| 1778256158 | 19.44° C | 51% | 1017.1 hPa | 0 mm | - | 285 W/m² | - |
| 1778256110 | 19.44° C | 49% | 1017.1 hPa | 0 mm | - | 251 W/m² | - |
| 1778256040 | 19.44° C | 48% | 1017.1 hPa | 0 mm | - | 237 W/m² | - |
| 1778255983 | 19.44° C | 49% | 1017.1 hPa | 0 mm | - | 207 W/m² | - |
| 1778255918 | 19.44° C | 49% | 1017.1 hPa | 0 mm | - | 195 W/m² | - |
| 1778255857 | 19.44° C | 48% | 1017.1 hPa | 0 mm | - | 211 W/m² | - |
| 1778255801 | 19.44° C | 52% | 1017.1 hPa | 0 mm | - | 220 W/m² | - |
| 1778255734 | 19.44° C | 49% | 1017.1 hPa | 0 mm | - | 232 W/m² | - |
| 1778255673 | 19.44° C | 50% | 1017.1 hPa | 0 mm | - | 248 W/m² | - |
| 1778255616 | 19.44° C | 53% | 1017.1 hPa | 0 mm | - | 234 W/m² | - |
| 1778255554 | 19.44° C | 50% | 1017.1 hPa | 0 mm | - | 237 W/m² | - |
| 1778255497 | 19.44° C | 53% | 1017.2 hPa | 0 mm | - | 251 W/m² | - |
| 1778255436 | 19.44° C | 53% | 1017.1 hPa | 0 mm | - | 239 W/m² | - |
| 1778255373 | 19.44° C | 51% | 1017.1 hPa | 0 mm | - | 239 W/m² | - |
* Rain latest hour (hover to see other rain measurements)
** Current wind speed in m/s (hover to see current wind gust speed)